{"data":{"norad_id":64726,"intl_designator":"2025-144C","name":"STARLINK-34557","alt_names":[],"object_type":"PAYLOAD","status":"ACTIVE","operator":null,"country":"US","launch_date":"2025-07-02","launch_site_code":"AFETR","launch_vehicle":null,"mission":null,"orbit_class":"UNKNOWN","rcs_meters":null,"size_class":null,"mass_kg":null,"dimensions":null,"purposes":["comms"],"wikipedia_slug":null,"has_3d_model":false,"image_url":null,"decayed_at":null,"tle_current":{"epoch":"2026-09-20T12:12:33.414912Z","epoch_age_seconds":127225,"freshness":"FRESH","line1":"1 64726U 25144C   26263.50872008  .00012404  00000+0  37760-3 0  9996","line2":"2 64726  53.1610 353.7118 0000973  98.2266 261.8847 15.34403056 69577","mean_motion":15.34403056,"eccentricity":9.73e-5,"inclination_deg":53.161,"raan_deg":353.7118,"arg_perigee_deg":98.2266,"mean_anomaly_deg":261.8847,"bstar":0.0003776,"rev_number":6957,"period_min":93.847571169071,"perigee_km":462.02854427457,"apogee_km":463.35977001775,"semimajor_km":6840.8311571462,"source":"CELESTRAK","updated_at":"2026-09-21T09:00:35.408957Z"}}}